Theta_e
312 312 312 312 313 313 313 313 313 314 314 314 314 314 314 314 314 307 298 303 310 322 324 310 308 315 320 318 315 310 300 297 298 299 301 310 309 315 317 316 316 319 319 321 325
311 311 312 312 313 313 313 313 313 313 313 313 313 313 313 313 306 300 307 316 318 323 312 305 300 309 311 312 316 307 301 300 303 304 305 307 309 311 312 313 313 316 319 321 322
311 312 312 312 312 312 312 312 313 313 313 313 313 312 312 312 296 296 323 315 318 313 311 311 309 306 304 308 311 310 303 305 304 305 307 307 308 311 309 309 314 314 316 319 320
311 312 312 312 312 312 312 313 313 313 313 313 313 312 312 304 287 304 316 315 317 309 313 311 306 301 300 301 308 304 309 309 309 307 307 305 308 308 309 310 315 316 319 319 319
310 311 311 311 312 312 312 313 313 312 312 312 312 312 306 298 296 305 314 312 308 305 299 306 302 300 298 302 305 306 306 311 312 312 311 312 311 311 312 316 319 321 321 320 320
310 311 311 311 311 312 312 313 313 313 313 313 312 311 302 292 303 307 308 308 305 303 301 302 305 303 301 300 301 306 307 308 310 313 314 312 312 314 315 319 317 317 317 319 319
310 310 310 310 311 311 313 313 313 313 316 313 313 308 300 298 307 310 308 306 306 304 300 301 302 304 301 298 303 302 299 302 304 308 309 312 307 308 315 316 314 315 316 317 319
311 310 310 310 311 312 313 313 313 315 315 313 313 307 297 307 310 309 308 306 306 305 303 303 302 299 301 303 299 297 298 294 302 302 304 306 299 309 313 312 312 313 315 316 318
310 310 309 310 311 312 312 312 314 315 315 314 308 304 297 310 303 307 309 303 304 304 304 304 301 297 298 295 293 295 291 294 297 304 302 302 300 307 311 311 311 313 314 315 316
310 310 309 309 310 311 311 312 313 315 313 311 309 298 300 297 303 304 307 306 301 300 299 297 297 293 294 293 286 289 290 293 294 300 301 300 300 305 309 308 309 311 312 314 315
309 309 308 309 310 310 308 305 301 298 300 295 296 296 298 302 305 303 305 302 300 297 292 294 289 287 291 293 295 294 292 292 296 300 299 299 300 303 306 307 307 309 310 312 314
309 308 308 309 309 310 306 301 300 301 294 299 299 298 300 301 295 300 304 296 294 290 292 290 287 291 293 293 292 292 291 291 294 298 297 299 298 302 303 304 306 307 308 310 312
308 308 308 308 308 305 303 302 306 302 293 295 298 297 299 300 295 296 300 297 293 290 290 288 291 293 290 290 289 291 290 291 291 295 297 295 294 298 302 304 305 307 308 309 310
308 307 308 307 303 303 301 306 306 303 288 289 293 296 299 299 293 301 301 298 293 290 291 289 293 290 290 288 290 286 292 292 292 291 287 296 287 296 299 300 303 305 306 307 309
308 307 307 306 302 301 303 306 304 300 277 290 293 302 300 294 295 295 304 298 291 291 292 289 290 289 288 288 291 288 293 291 291 290 290 290 287 292 298 297 300 302 304 307 310
308 308 307 304 303 304 305 304 301 286 275 287 293 292 292 294 293 296 296 299 299 293 294 292 297 293 291 292 292 293 291 291 291 289 283 288 287 289 293 297 300 303 305 306 308
308 307 305 304 300 305 303 299 286 280 289 286 287 291 290 289 290 291 290 290 288 285 286 291 291 295 295 289 291 290 288 281 279 280 280 289 287 290 297 299 300 301 305 307 308
307 303 306 306 307 306 299 291 279 284 285 291 290 290 286 289 289 289 288 287 292 290 286 284 281 289 294 291 287 288 287 282 276 278 281 288 284 290 299 301 303 304 306 307 309
304 304 304 306 307 303 297 285 283 286 289 289 289 285 285 288 288 288 287 287 290 292 284 283 283 293 294 294 292 288 284 290 284 286 283 286 289 295 297 298 301 302 306 311 314
300 301 302 305 305 302 293 285 287 291 292 291 284 287 283 286 285 286 286 290 290 293 294 289 282 290 290 294 294 291 292 284 285 278 277 284 286 289 295 296 301 303 306 310 317
300 299 304 304 304 297 288 287 289 294 294 289 287 286 287 286 286 285 286 290 293 292 294 292 287 286 290 288 286 288 287 288 288 286 281 282 286 297 297 299 299 302 304 309 318
297 294 303 303 295 287 288 288 292 292 295 292 292 290 288 288 286 286 285 289 294 293 288 292 288 282 285 291 293 290 288 289 284 282 285 284 285 298 299 300 301 302 303 306 320
293 293 303 300 288 287 289 289 290 290 291 291 289 292 292 288 284 287 288 293 294 293 290 292 286 280 282 288 291 287 289 290 290 289 285 282 285 298 299 299 302 302 304 308 320
294 290 294 294 292 287 286 286 286 293 292 293 291 292 290 288 290 286 288 292 294 293 296 295 288 284 280 283 287 285 287 289 289 284 285 286 288 293 296 297 300 302 305 310 319
291 289 291 286 288 287 287 287 285 286 292 292 289 290 288 285 286 286 289 290 293 295 294 292 285 287 287 288 288 287 286 287 286 288 284 288 289 293 296 299 301 303 306 305 310
289 289 292 289 288 288 287 286 286 288 287 287 287 289 290 285 287 284 288 288 288 292 290 292 285 287 285 288 288 285 287 288 288 289 288 289 289 297 299 301 300 302 304 304 312
294 293 291 289 287 286 287 287 287 288 290 292 290 288 288 290 293 294 294 294 292 289 288 289 286 285 280 286 285 281 286 287 289 291 290 286 292 297 297 299 301 305 308 310 316
Wind_Speed
16 16 16 17 17 17 17 17 17 16 16 16 17 18 19 21 21 5 5 3 5 13 11 8 4 4 3 5 6 5 8 13 18 13 7 1 7 2 2 6 3 1 2 4 5
16 17 17 17 17 17 18 19 18 17 16 16 16 17 18 19 12 9 6 7 9 12 5 4 6 10 6 8 8 10 10 16 9 13 7 11 9 5 4 5 5 6 1 3 6
17 17 17 18 18 17 17 17 17 16 15 15 15 15 16 14 5 1 10 11 13 12 8 3 3 7 14 7 12 11 20 21 15 14 12 16 15 8 7 12 13 7 1 12 16
18 18 18 18 18 18 18 17 16 16 15 13 12 13 16 3 4 1 10 11 15 10 2 2 6 7 9 19 15 15 20 22 15 9 6 15 14 15 17 21 11 11 11 12 15
18 18 19 19 20 20 18 16 15 14 12 9 9 9 5 3 6 2 9 12 6 5 2 2 9 11 15 10 18 24 22 16 22 16 11 8 22 19 21 20 18 20 17 18 14
19 20 20 20 21 21 21 17 15 14 11 6 5 3 1 4 0 5 7 8 4 5 2 2 4 8 10 14 19 10 20 24 19 15 15 18 27 19 17 13 17 16 19 17 15
19 20 21 21 21 21 21 21 14 13 10 3 3 2 1 7 3 8 10 4 2 3 1 3 6 9 2 10 9 15 19 13 16 23 19 9 24 35 21 21 21 23 21 21 22
20 20 22 22 22 22 22 22 18 13 2 4 6 2 7 4 5 12 3 6 5 5 3 5 3 5 8 9 8 11 12 23 25 12 10 17 30 35 21 21 26 24 22 20 20
20 19 21 22 22 21 22 23 17 2 7 10 4 1 5 3 6 4 6 6 8 4 4 4 4 6 6 13 9 13 21 27 19 22 17 18 28 27 23 15 18 16 17 17 17
20 19 20 21 21 21 23 18 3 8 6 3 3 3 4 10 10 15 5 9 5 5 3 2 5 9 11 13 19 19 15 17 21 14 19 23 34 26 19 16 18 17 18 19 20
22 21 22 21 21 21 11 2 3 1 1 4 4 5 14 9 10 6 5 4 3 5 9 2 9 16 17 16 21 18 11 20 18 7 15 26 30 24 21 24 24 22 20 20 21
23 23 22 22 20 19 4 5 5 1 8 6 12 10 11 5 8 11 2 3 2 10 4 6 15 13 12 14 15 19 19 14 11 12 8 14 22 16 16 21 21 21 22 22 22
21 22 21 21 23 2 1 7 4 4 4 8 4 4 5 9 8 10 2 2 7 8 11 17 16 7 9 16 19 18 21 21 14 12 15 13 24 24 22 21 22 23 22 22 22
22 21 20 20 2 3 2 7 1 5 2 3 2 1 8 13 4 17 4 2 4 10 9 14 17 14 13 14 15 20 11 12 16 14 14 6 13 15 14 17 20 20 19 21 22
23 23 17 7 5 2 3 4 3 3 5 8 2 3 13 5 10 5 2 7 14 16 9 18 15 14 16 16 15 13 18 14 8 10 11 20 13 19 13 20 18 15 18 21 23
25 23 11 3 3 4 5 2 3 3 3 3 4 13 17 8 12 6 10 11 8 11 13 22 17 18 17 12 10 14 14 21 18 14 17 18 11 23 18 23 20 18 20 17 15
27 20 3 3 2 3 3 2 3 3 5 4 8 11 18 6 13 14 16 12 6 7 11 15 19 20 18 18 11 8 11 9 12 12 20 9 14 24 7 5 3 9 12 16 15
27 5 2 2 4 5 0 1 2 1 5 8 8 18 5 9 12 14 11 10 2 6 10 7 9 8 7 23 18 12 15 9 15 13 16 13 14 10 8 16 11 7 9 12 15
16 2 1 4 2 1 1 1 1 1 5 9 16 4 2 5 8 9 12 6 2 7 5 6 3 4 15 5 15 15 10 18 8 2 8 12 17 17 17 19 11 12 10 14 16
3 3 3 6 3 1 1 2 2 2 7 5 5 3 6 10 9 10 7 3 5 5 3 2 8 4 4 4 4 8 4 11 8 6 8 10 17 9 1 6 6 11 14 18 19
2 0 2 7 1 3 2 3 5 4 5 3 5 7 8 10 5 9 7 12 3 11 10 6 4 5 5 5 6 9 6 5 10 11 5 2 3 2 11 11 10 13 15 19 18
4 1 5 3 2 1 1 5 6 6 2 4 6 9 8 6 9 8 8 6 11 11 12 4 5 6 11 7 9 3 6 9 8 19 11 10 5 2 8 11 14 17 20 19 12
5 4 2 3 2 2 4 6 5 4 5 3 4 3 3 7 7 6 10 6 12 7 3 6 2 7 6 6 5 1 3 5 7 6 14 14 8 8 9 19 17 21 21 18 12
3 4 2 4 2 2 6 4 4 4 10 5 10 10 7 7 8 8 13 10 9 13 15 12 6 9 10 9 7 9 11 12 8 10 13 19 22 28 21 21 22 22 20 17 11
3 3 2 4 2 7 4 5 8 5 4 9 4 7 6 7 16 18 16 13 15 20 10 4 10 13 15 16 16 18 19 18 17 16 18 15 21 24 19 19 20 20 19 20 17
3 3 2 5 7 7 3 2 6 5 5 9 13 12 15 15 17 25 22 16 8 3 5 6 4 4 11 14 16 22 21 22 24 22 20 23 27 21 21 23 22 21 22 20 16
1 1 1 3 3 4 3 3 7 13 11 10 13 16 16 19 16 21 21 23 18 8 5 5 5 7 14 8 10 14 24 26 22 21 18 23 21 22 21 21 19 19 18 19 16
Wind_Direction
2 359 355 352 348 343 339 336 334 333 332 334 333 330 329 326 323 318 273 338 281 300 318 297 290 211 177 224 182 155 228 236 233 212 227 184 231 243 302 264 295 220 128 56 41
356 352 350 347 343 340 336 334 330 329 330 327 325 324 321 323 320 301 261 292 304 315 291 250 222 207 212 206 200 199 219 229 223 219 223 242 243 256 284 231 260 248 203 69 49
351 349 346 342 339 336 332 328 327 326 326 324 321 316 315 324 292 171 115 23 357 343 248 238 216 230 222 210 202 210 230 229 233 232 229 251 256 251 257 265 250 253 20 329 316
347 345 342 339 336 333 329 328 327 325 322 317 309 316 315 313 346 115 340 349 342 333 129 199 188 205 229 219 215 245 232 238 244 230 229 245 267 253 245 250 263 274 293 285 285
344 342 338 336 334 331 327 326 323 326 320 305 293 305 326 312 258 248 328 329 347 15 10 292 224 212 227 223 228 233 242 242 245 244 241 270 265 255 264 261 267 275 274 270 262
341 340 337 337 335 332 326 323 324 326 322 286 259 263 68 353 171 256 316 321 22 44 16 240 237 245 271 247 226 235 240 246 247 240 239 244 261 267 245 247 270 281 281 276 262
339 339 337 336 334 330 324 319 326 323 313 272 200 176 307 248 291 316 316 279 196 185 51 229 262 251 323 256 263 260 258 245 237 238 235 209 269 253 255 256 255 262 265 272 276
338 338 336 335 334 330 324 316 321 323 307 155 152 144 259 253 294 297 265 282 257 243 209 219 272 292 233 292 266 241 235 241 230 218 233 193 252 259 255 257 263 267 267 266 266
337 336 335 332 330 327 319 310 316 345 120 134 127 315 307 282 315 339 214 275 292 216 223 196 159 217 216 230 250 221 240 231 249 229 228 202 244 257 253 249 257 258 264 271 275
337 335 334 332 330 327 319 314 58 106 117 159 139 257 244 332 320 314 259 255 277 289 140 227 206 230 214 213 224 233 241 258 252 231 222 225 242 248 264 266 255 260 264 267 269
337 337 335 332 329 326 332 74 4 211 32 269 300 276 279 290 296 276 304 262 266 245 259 183 245 230 233 237 255 263 304 260 251 207 234 226 246 245 249 255 262 262 263 264 267
337 336 334 330 329 322 313 77 104 279 309 272 265 244 273 264 290 294 226 269 253 279 230 207 248 260 259 251 248 244 250 253 280 265 256 250 260 257 258 260 265 268 268 267 272
334 333 332 329 323 326 49 144 109 147 284 300 257 261 312 302 299 299 263 257 274 265 259 262 255 256 259 247 244 239 240 242 249 280 277 270 271 262 254 255 260 258 262 266 264
331 331 327 328 251 340 208 146 345 194 274 286 315 154 356 318 250 317 219 278 263 289 291 258 259 237 246 239 242 245 229 237 237 237 251 211 275 265 257 256 254 259 257 260 264
330 329 320 311 318 231 62 335 131 202 294 334 313 356 335 323 297 312 263 329 283 280 262 262 287 256 244 240 224 252 230 239 248 248 264 251 271 266 248 257 255 268 261 257 255
332 331 314 136 194 265 317 321 192 230 273 339 318 336 337 327 325 295 318 322 290 276 253 265 274 253 242 240 244 229 218 216 228 239 246 240 243 276 256 261 260 256 255 265 278
334 336 167 157 51 323 298 156 249 228 350 334 328 332 326 311 336 334 331 325 322 312 307 295 282 241 232 233 227 231 200 188 203 208 235 216 212 245 340 99 320 296 292 289 290
334 357 167 230 289 328 326 156 226 21 296 317 322 313 303 359 337 332 320 324 45 10 313 318 337 330 213 224 228 222 219 222 214 202 232 204 221 243 248 269 268 291 302 294 296
333 3 72 346 19 133 326 97 249 297 319 313 314 296 313 339 326 326 319 294 327 1 327 299 268 334 330 310 221 225 224 233 296 266 216 196 244 268 267 281 277 298 333 332 323
349 338 25 333 339 41 74 293 260 273 328 311 287 280 299 326 325 335 307 251 302 11 325 274 289 187 250 359 316 254 258 205 212 231 212 212 234 247 128 234 42 20 2 345 336
9 49 10 337 277 42 64 289 295 297 327 285 273 285 285 310 293 313 269 290 323 338 336 294 248 293 289 220 167 269 219 243 255 240 287 271 151 161 110 69 20 8 354 347 343
340 293 6 319 34 53 344 320 308 293 212 285 274 268 262 301 288 286 255 278 332 329 319 328 298 289 288 291 278 257 296 241 247 225 238 286 272 107 104 28 4 350 341 341 347
346 294 334 302 33 342 332 294 268 292 312 281 279 281 289 288 293 253 277 277 312 316 306 352 286 306 312 160 87 310 262 280 295 272 254 243 244 167 284 328 339 334 340 342 347
336 331 4 42 33 11 333 314 316 271 290 259 293 288 285 287 255 280 281 292 284 292 282 320 253 254 270 307 322 291 285 286 269 260 251 239 262 268 289 307 320 327 328 333 344
13 42 19 319 354 314 290 274 292 291 316 311 277 244 279 280 294 277 284 294 284 280 274 271 267 249 254 268 275 276 279 278 260 259 251 262 255 268 286 299 311 315 310 317 328
5 349 360 292 296 296 269 265 261 315 322 283 270 283 300 283 280 291 294 283 257 249 216 201 260 266 253 258 263 273 274 262 255 255 255 254 258 272 285 287 290 301 300 306 318
136 166 215 265 290 295 282 315 305 319 290 260 277 292 284 287 293 286 282 277 262 248 232 233 234 248 265 274 288 271 249 246 253 253 252 240 250 259 264 272 280 286 292 298 300